GFSSE_500_spd_000.txt.gz
Wind_Speed
18 20 22 23 25 30 33 32 32 29 27 31 28 24 20 23 22 22 22 23 25 26 27 26 27 25 26 26 22 22 20 19 17 21 24 33 40 38 34 32 29 27 28
21 24 25 26 29 30 34 32 29 27 22 23 22 22 21 23 25 26 27 27 24 23 23 25 26 25 25 28 26 25 23 23 21 21 25 24 34 37 40 37 33 30 31
26 26 28 25 28 29 29 29 30 29 27 24 23 27 27 25 26 25 25 25 24 24 22 21 21 23 22 21 26 25 25 23 23 24 24 27 25 39 37 37 36 33 32
28 29 28 28 27 28 27 29 28 26 26 28 26 24 23 22 22 21 19 19 19 19 18 18 21 22 22 22 22 24 25 22 21 21 24 26 26 34 38 41 36 36 35
19 21 22 22 23 22 22 22 25 26 24 20 18 18 18 17 17 16 17 19 18 18 17 17 19 20 21 21 20 19 23 23 23 24 22 23 25 25 36 39 40 38 39
14 14 15 15 16 17 18 19 19 18 17 17 18 18 17 15 13 13 13 13 14 15 14 14 15 16 14 15 18 16 18 20 21 24 24 25 27 30 31 32 46 45 41
10 12 13 14 14 15 16 15 14 14 14 14 12 12 14 14 14 14 14 14 15 14 14 13 12 12 13 13 14 15 16 17 19 20 22 26 24 32 32 37 37 44 40
8 9 9 9 10 10 9 8 8 10 11 12 13 13 14 16 17 17 17 17 17 17 17 15 12 11 11 10 11 12 11 13 14 17 17 22 24 30 29 27 26 36 45
5 5 6 7 8 9 9 9 10 10 10 11 13 15 16 16 17 17 18 19 21 20 18 17 16 14 12 12 13 13 13 14 14 16 17 15 18 24 30 30 31 28 38
5 4 5 6 6 8 8 8 9 11 12 13 15 16 17 16 16 15 15 16 16 18 20 19 17 16 17 16 15 16 16 14 15 17 19 19 19 17 22 29 33 31 35
3 3 5 7 8 9 11 12 13 14 16 17 17 18 19 19 19 20 21 20 19 18 18 20 21 21 19 19 19 17 16 18 21 20 20 22 25 25 22 25 27 33 28
3 5 7 8 10 12 15 17 19 19 20 21 21 22 22 21 21 23 24 25 25 24 24 24 24 24 24 23 23 22 22 21 19 20 20 22 25 28 28 27 27 27 30
9 10 12 14 15 17 18 19 20 20 21 23 24 26 28 29 30 32 33 34 34 33 33 32 31 30 29 27 26 26 27 28 28 27 24 24 25 27 28 29 30 31 30
12 14 15 15 14 15 16 20 23 25 27 28 30 32 33 35 36 37 37 38 37 37 36 35 36 36 35 34 33 32 32 32 33 34 33 32 31 31 31 32 32 32 34
17 17 16 16 16 18 22 26 28 30 32 32 33 34 34 35 36 36 37 38 38 37 37 38 38 38 38 39 39 39 39 39 39 39 39 38 38 38 37 35 36 35 34
19 21 23 22 23 24 26 29 31 33 34 35 35 36 37 38 38 39 39 40 39 39 41 42 42 42 42 42 42 42 42 43 44 44 44 43 43 42 43 42 41 41 38
21 23 26 27 28 29 30 33 35 36 37 39 39 39 41 43 43 43 43 44 44 43 42 42 42 42 44 45 46 46 48 48 49 49 49 49 49 49 48 48 48 46 45
24 27 27 28 31 34 36 38 38 38 39 41 44 45 45 43 44 45 45 47 47 45 42 40 40 40 40 42 44 46 47 47 47 48 49 50 52 53 53 53 53 52 51
28 29 31 33 35 35 38 40 40 41 44 45 45 46 49 48 47 47 47 47 47 47 47 47 47 46 46 46 46 46 47 47 47 48 48 49 51 53 54 53 55 56 56
32 34 37 37 36 38 41 41 41 44 47 48 49 50 49 50 50 50 50 50 52 53 53 54 54 54 55 53 55 56 53 54 54 54 52 51 52 53 56 58 56 57 57
34 37 40 40 40 43 45 46 48 50 52 52 51 52 51 52 53 54 54 56 57 58 59 59 61 62 61 62 63 62 62 64 60 60 56 56 55 57 59 60 61 61 60
37 39 41 42 44 46 49 50 51 53 54 52 52 53 55 56 57 58 60 62 63 66 67 66 67 67 68 65 65 66 67 67 68 63 63 60 58 59 60 60 63 62 63
38 41 43 44 47 50 52 53 55 54 54 55 57 58 60 62 64 65 66 67 68 69 70 71 71 71 73 72 71 72 71 72 73 72 72 63 66 61 61 60 62 64 65
41 44 44 47 50 51 52 53 53 54 56 59 61 62 65 67 68 69 72 74 74 74 74 74 74 75 76 74 76 77 75 73 73 74 76 75 66 70 69 66 64 64 65
44 46 47 48 47 49 51 54 55 57 60 64 66 67 69 71 74 76 77 79 79 79 78 76 76 78 78 78 75 73 73 73 71 74 75 76 76 74 68 71 72 69 68
45 45 45 46 48 50 52 53 57 62 65 69 70 71 74 76 79 81 81 81 81 82 82 83 82 80 78 79 78 76 76 72 71 71 74 75 74 76 75 69 73 75 73

GFSSE_500_spd_003.txt.gz
Wind_Speed
26 26 26 27 28 30 33 34 32 32 29 24 21 17 16 14 14 18 20 19 18 19 21 21 22 23 27 26 25 24 28 26 26 25 26 28 29 34 38 36 31 27 25
27 28 29 30 33 33 30 29 27 27 24 20 21 19 18 17 17 16 17 19 19 19 22 23 24 26 26 25 25 25 26 27 28 26 27 25 27 28 37 40 37 33 30
26 28 30 29 23 23 25 24 22 20 19 17 18 18 18 19 20 18 15 14 14 17 19 19 17 18 20 24 24 22 22 22 23 25 26 27 27 26 31 39 36 37 33
25 21 18 20 21 19 18 17 17 16 15 15 15 15 17 19 18 16 13 13 15 16 17 18 17 18 20 23 23 20 19 20 20 23 24 23 30 32 33 31 35 38 39
15 16 16 16 16 16 16 15 14 14 14 16 16 16 15 13 12 12 13 13 14 16 17 16 15 15 15 16 18 18 16 17 21 23 25 22 27 23 30 33 39 40 38
12 12 12 14 12 11 12 12 12 11 11 11 10 12 13 13 12 11 11 12 14 15 14 14 14 12 9 10 12 13 12 14 16 20 23 22 18 23 26 32 25 35 41
8 9 7 5 8 9 8 8 8 7 6 6 9 10 10 12 13 13 13 13 14 15 15 14 12 10 11 12 11 9 9 9 10 13 17 19 22 27 29 29 29 31 30
2 3 6 6 6 6 6 5 5 5 6 7 9 11 11 12 12 13 13 14 15 15 14 14 13 14 14 13 12 13 12 12 10 10 12 15 18 18 27 27 29 34 31
3 4 5 3 3 4 5 5 6 7 9 10 13 14 14 15 14 13 14 14 15 14 14 14 14 15 16 16 16 15 15 15 15 14 15 16 18 16 16 22 30 26 26
4 3 0 2 3 5 6 8 9 10 12 14 16 18 19 21 21 19 18 18 18 18 17 16 16 17 17 18 19 19 19 18 19 19 18 18 19 21 22 20 20 26 21
0 3 5 7 8 10 11 13 14 16 17 19 19 20 22 23 24 23 25 25 26 26 26 26 24 24 22 20 19 20 22 23 23 20 20 24 23 25 27 25 24 24 23
6 9 11 12 14 15 15 16 17 18 19 20 22 23 25 26 27 29 29 31 31 32 33 32 31 30 29 28 26 25 23 24 27 26 23 25 23 24 27 27 27 28 28
11 13 15 15 16 17 19 19 19 21 23 26 27 27 28 29 30 31 34 34 34 34 36 34 34 34 33 32 31 30 29 29 29 29 29 32 30 29 28 29 27 27 28
11 13 14 15 17 19 21 22 23 25 28 30 31 32 31 31 33 34 36 36 37 38 38 38 39 38 37 36 35 34 33 33 33 33 32 35 35 36 36 35 34 32 31
14 16 17 19 21 23 26 27 28 30 32 35 35 34 34 34 35 36 39 41 41 40 40 40 39 40 41 41 40 39 39 38 38 38 40 38 40 40 41 42 41 39 37
17 19 20 23 25 27 30 31 33 33 35 37 38 38 39 40 41 41 43 43 42 42 43 42 42 42 42 42 41 40 40 41 42 43 45 44 44 44 44 44 45 45 44
21 22 25 26 27 30 32 34 35 37 39 42 42 41 41 44 43 43 44 43 42 42 42 42 42 41 40 41 40 40 41 43 45 45 46 48 45 48 48 48 48 49 48
24 26 28 28 32 34 34 36 36 39 41 42 42 44 47 47 47 46 45 45 46 46 46 46 45 45 45 43 43 44 44 44 46 47 48 49 51 47 46 50 51 52 53
27 31 34 32 36 37 38 39 40 43 46 47 48 49 50 50 48 48 50 51 51 51 51 52 52 53 53 53 52 53 51 50 53 55 54 54 52 53 53 49 51 53 54
31 34 38 40 39 42 45 44 46 48 51 52 53 53 53 51 51 53 55 56 56 57 57 57 59 60 61 63 63 62 62 63 61 60 62 60 60 60 58 61 56 55 56
36 38 41 46 43 45 47 48 50 53 54 54 55 55 54 53 54 57 59 60 61 63 64 64 65 65 67 68 68 68 68 67 69 69 68 68 68 69 66 61 67 63 61
39 43 44 44 47 48 50 51 53 55 56 56 56 56 58 58 61 63 66 68 68 69 71 72 73 73 73 73 74 70 73 72 73 77 75 72 71 71 73 73 68 66 66
43 46 47 49 49 51 53 54 56 56 56 57 58 59 61 63 67 68 70 71 72 74 76 78 79 78 78 76 75 75 74 75 73 73 75 80 79 79 72 71 76 72 67
45 45 47 49 51 52 54 56 55 55 56 58 61 63 64 66 69 71 75 77 77 78 79 79 79 79 79 78 78 77 76 77 73 71 70 74 79 79 78 76 70 75 69
43 46 49 52 52 52 52 54 56 56 55 53 57 67 62 67 72 77 79 79 78 78 79 80 81 80 79 80 79 80 81 79 77 78 74 71 70 78 79 75 82 72 73
45 48 49 49 49 51 54 56 57 54 54 59 67 70 72 73 76 78 79 79 79 80 81 81 82 82 82 83 82 84 85 85 85 86 83 79 80 77 78 79 78 84 76

GFSSE_500_spd_009.txt.gz
Wind_Speed
21 24 17 22 21 24 25 22 16 13 11 9 8 8 9 9 9 11 12 12 11 11 11 12 13 14 16 17 18 18 19 20 23 28 34 31 33 30 32 29 26 33 18
23 19 24 22 22 20 12 9 8 6 4 6 7 7 8 8 8 8 9 10 10 11 12 12 13 14 15 14 13 13 15 19 22 26 26 32 33 34 29 27 30 29 24
22 24 22 20 15 10 8 6 3 3 4 5 8 10 12 13 12 12 12 12 12 11 11 12 13 12 12 12 13 14 16 17 19 22 27 28 29 29 30 28 30 31 31
24 21 17 13 8 9 8 6 2 2 5 7 6 6 8 9 9 9 9 10 10 11 12 12 13 12 9 9 10 12 14 14 16 20 23 23 26 28 24 18 26 28 32
18 13 11 9 8 7 4 4 4 6 7 4 3 3 4 5 7 8 9 9 10 10 10 11 10 11 11 9 9 10 10 11 15 18 18 19 22 24 26 32 26 30 32
11 11 9 7 5 3 3 5 6 5 3 1 2 3 6 7 8 8 9 9 10 11 12 12 12 12 12 12 12 12 13 14 14 15 14 15 20 21 26 27 34 29 21
10 9 8 5 5 5 5 4 3 2 1 4 6 8 9 10 11 11 11 11 11 12 12 13 12 12 12 15 15 17 18 18 19 16 13 12 15 15 19 24 18 23 12
10 9 7 4 3 3 3 3 5 6 8 8 9 11 12 13 15 15 15 16 16 17 16 16 15 15 16 17 17 19 21 22 23 20 17 17 15 16 15 11 15 15 13
8 6 5 2 1 2 5 8 9 11 13 13 13 14 15 16 19 20 20 20 20 20 20 21 22 22 23 23 21 21 22 24 27 25 20 18 19 18 17 14 12 8 16
6 4 0 2 4 6 7 10 12 14 15 17 17 16 18 19 22 24 23 22 21 21 22 22 22 21 23 23 23 23 24 26 29 27 26 25 22 20 19 20 20 13 15
3 2 4 6 7 9 10 12 14 16 18 22 22 23 24 23 24 25 26 24 23 22 23 23 24 24 25 24 22 22 23 24 28 29 30 30 28 25 24 24 23 19 17
2 2 6 7 9 12 12 13 15 17 20 23 24 26 26 26 25 24 24 24 26 27 29 33 33 33 32 30 27 26 26 26 27 27 27 29 31 32 30 28 26 26 23
3 4 11 12 12 10 12 16 19 20 23 24 26 28 29 30 30 30 31 31 32 33 35 35 34 33 33 31 30 30 29 28 29 30 29 29 30 31 31 32 33 32 30
5 11 18 13 13 15 16 17 18 22 25 26 29 31 33 34 36 36 37 37 37 37 39 38 38 36 32 29 29 30 29 29 29 29 27 28 30 31 31 32 32 33 36
12 14 18 18 11 16 21 24 26 29 31 32 34 35 35 35 37 37 40 40 40 40 39 37 36 34 32 31 30 29 30 32 32 32 31 29 29 33 34 34 36 36 36
18 22 18 25 15 11 17 28 30 31 34 36 36 37 37 39 40 40 43 40 39 37 37 35 34 34 35 36 35 35 33 34 35 37 37 36 36 35 36 38 38 37 36
23 29 25 1 20 24 36 40 32 25 38 35 41 41 42 43 45 44 45 43 42 40 40 37 37 39 42 43 42 41 41 41 40 40 43 45 44 44 43 43 43 43 41
22 28 31 30 30 22 36 37 23 40 37 44 49 47 47 45 45 47 46 46 46 45 45 44 44 47 50 50 50 50 49 49 49 50 48 47 49 49 50 48 48 49 49
27 28 37 36 35 32 38 35 33 44 50 48 50 52 54 53 53 50 49 52 53 52 52 52 53 56 57 57 58 57 56 55 55 56 56 57 56 56 56 55 54 53 53
28 32 39 40 39 41 41 45 48 48 48 52 52 53 52 51 52 56 56 55 56 56 59 61 63 60 62 63 64 63 62 61 60 60 62 63 64 65 65 65 65 63 61
33 38 41 43 44 46 48 49 42 52 53 56 57 54 55 57 58 56 56 57 60 61 62 64 67 70 72 75 74 72 71 70 70 70 70 70 71 73 74 73 72 73 72
38 40 42 44 45 47 50 46 51 51 56 57 55 57 59 59 61 63 65 65 66 67 68 71 73 75 75 78 79 79 78 75 74 73 74 74 75 76 79 79 80 79 78
40 43 45 46 48 49 49 49 51 54 52 54 56 57 59 61 63 66 69 72 75 76 76 76 77 78 78 77 79 80 82 83 82 79 77 76 74 75 76 79 82 83 83
42 43 43 45 47 47 49 47 51 52 54 55 57 60 62 64 68 72 75 77 79 80 82 82 80 79 79 79 80 82 82 84 86 88 81 78 78 77 77 75 77 80 80
36 38 40 41 40 42 45 46 49 53 55 57 60 64 68 72 77 80 80 81 83 84 83 83 82 82 82 81 81 82 84 85 88 90 84 79 80 81 82 81 80 80 80
34 35 38 40 43 44 46 48 49 51 57 62 66 70 74 78 80 81 83 85 84 83 84 84 83 82 83 84 87 90 90 89 89 95 98 92 89 85 87 88 89 88 85

GFSSE_500_spd_015.txt.gz
Wind_Speed
23 21 22 19 17 20 22 20 16 14 11 5 4 7 9 9 9 11 11 11 12 12 14 15 16 18 18 17 16 15 12 15 16 17 17 17 20 20 20 21 24 26 30
20 24 21 20 20 23 20 15 12 10 5 1 5 7 8 8 8 8 8 8 9 10 11 13 14 16 16 17 17 17 15 14 15 18 19 19 19 19 19 19 21 24 26
29 24 22 22 22 20 15 11 12 8 3 5 5 4 2 3 4 5 6 8 10 11 12 12 13 14 15 16 17 16 17 17 17 16 17 19 18 18 18 13 14 20 23
31 28 24 25 22 17 12 12 9 6 6 6 3 2 4 6 6 8 9 10 12 13 15 16 17 17 16 17 16 15 16 19 19 21 20 18 18 16 14 9 10 17 21
35 31 22 22 16 12 10 5 5 7 7 6 5 7 9 10 10 12 12 13 15 16 16 17 18 19 19 20 18 17 15 19 20 22 21 20 19 17 16 10 9 16 17
33 28 23 17 12 6 5 6 7 6 7 8 9 11 12 13 14 15 16 18 19 20 20 22 21 22 22 23 22 20 18 20 22 21 22 21 20 21 19 20 12 12 11
25 21 17 12 7 8 9 8 7 8 9 10 13 13 15 16 17 18 18 20 22 23 23 24 24 25 25 26 27 26 25 24 25 25 24 24 22 20 19 17 18 15 11
17 16 12 10 11 11 9 8 8 9 11 13 14 16 17 18 19 20 22 25 27 27 28 27 26 26 26 26 28 28 29 28 29 29 28 26 25 23 22 20 22 19 16
14 12 12 13 12 8 8 9 10 13 13 14 16 17 19 21 23 26 27 29 30 30 28 26 25 24 25 25 26 28 28 27 27 28 27 29 29 27 25 23 23 21 20
12 12 12 12 10 9 10 11 14 16 16 16 17 19 21 24 25 26 26 26 27 28 29 28 29 28 28 28 30 29 30 28 28 29 25 27 29 30 29 27 25 25 23
11 11 11 10 9 12 13 14 16 17 17 19 23 23 22 23 23 23 24 26 27 28 29 30 32 34 35 35 34 33 31 29 28 27 26 26 26 29 30 30 29 28 26
9 10 9 11 13 14 14 16 18 18 20 22 23 24 25 25 26 27 29 29 29 30 33 34 35 35 36 35 34 34 31 28 26 25 26 26 26 27 30 30 30 30 30
10 11 11 12 11 13 16 21 23 18 19 24 25 29 29 26 26 26 30 34 33 32 34 37 37 32 30 33 34 34 31 28 26 26 27 27 26 26 27 30 31 32 33
11 12 11 13 16 18 18 21 18 21 31 26 30 33 27 25 29 28 37 37 35 35 34 33 33 32 30 29 30 31 32 32 31 31 29 29 29 29 29 29 30 31 33
11 15 15 14 17 19 21 19 19 26 32 37 35 30 29 32 35 35 39 40 39 36 33 32 33 33 32 31 31 31 32 34 36 37 38 38 39 39 36 34 33 33 33
9 13 16 16 18 19 11 14 22 26 28 30 31 31 34 36 34 40 39 40 38 38 36 37 37 36 35 35 34 36 36 38 39 41 43 44 44 43 45 45 44 41 39
14 16 19 17 18 20 23 26 26 28 29 35 34 38 38 39 40 44 42 37 41 42 41 41 42 43 43 41 41 41 43 44 46 47 49 51 50 49 48 46 48 50 49
16 17 15 18 24 17 32 28 27 27 41 43 41 39 42 43 44 45 39 40 41 43 42 42 45 45 47 48 48 49 51 53 54 56 57 58 58 57 57 57 53 50 52
17 19 16 18 25 30 32 22 20 43 45 42 41 44 46 46 49 46 43 42 42 42 45 47 49 50 52 54 56 58 59 60 61 62 62 62 63 64 65 64 63 63 60
23 19 21 28 27 33 37 33 44 46 39 35 44 47 49 48 47 47 47 48 49 51 53 54 56 58 60 61 63 64 65 68 70 70 70 69 69 70 69 70 72 72 71
20 21 23 32 40 44 47 49 42 44 38 44 54 48 46 49 49 50 52 55 58 61 63 65 65 66 67 69 71 73 75 76 76 77 77 76 76 76 77 78 77 78 78
20 26 36 41 47 49 50 47 44 41 51 51 49 49 49 50 52 55 60 64 67 70 73 75 77 77 77 79 81 80 81 80 79 79 81 82 82 82 82 83 84 84 84
32 34 38 43 46 48 49 49 51 52 50 49 50 50 50 54 59 64 68 71 74 77 79 81 83 84 85 85 86 87 86 85 84 79 80 82 84 86 87 89 89 89 89
37 40 44 46 47 50 52 51 50 50 50 50 52 54 57 61 65 69 73 76 80 82 82 85 88 89 88 89 86 85 84 86 88 90 86 84 85 87 88 89 90 90 91
42 44 45 48 51 49 46 45 45 46 48 50 53 56 61 65 69 72 77 81 85 88 91 91 92 90 89 89 89 89 88 90 93 93 90 90 90 91 93 92 92 91 91
41 42 48 48 44 42 42 44 43 44 48 52 57 62 68 71 75 81 85 88 90 92 92 90 90 91 91 92 92 92 93 93 94 94 95 96 97 95 96 97 99 98 96

GFSSE_500_spd_021.txt.gz
Wind_Speed
21 20 19 18 18 23 26 29 31 23 9 5 6 4 3 3 6 7 8 9 10 11 11 11 12 12 12 13 14 16 15 15 15 15 16 17 16 16 15 17 18 17 16
18 17 18 18 20 22 24 25 24 15 9 6 6 3 1 2 5 7 9 10 12 14 15 16 17 17 17 17 16 16 17 17 16 16 17 19 18 19 17 17 17 19 19
20 13 14 20 18 20 21 21 18 12 8 7 7 4 3 4 6 8 10 12 14 16 18 19 19 20 20 19 18 19 18 18 19 19 19 20 19 19 19 17 17 15 16
13 11 17 17 14 17 19 16 13 12 9 8 8 7 7 8 11 13 14 16 17 19 20 22 22 23 23 23 22 20 20 20 20 21 20 22 22 20 19 18 16 14 16
8 13 17 14 15 15 14 12 11 7 8 10 10 11 10 12 15 16 17 19 20 21 23 25 26 27 26 25 24 23 22 21 21 23 24 23 24 24 22 19 17 16 18
8 13 14 12 14 13 12 10 6 6 8 12 13 12 14 16 18 19 20 21 23 27 29 29 29 28 27 24 21 20 18 18 18 20 22 23 22 26 26 24 20 17 16
11 13 13 14 13 11 10 6 6 7 10 12 12 14 17 19 20 21 22 25 28 29 28 26 25 25 23 24 23 21 20 21 23 23 23 24 23 23 24 27 26 21 19
12 12 11 10 10 10 8 5 5 8 10 11 14 17 19 21 22 23 26 27 27 27 26 25 26 26 26 25 25 26 26 27 28 29 27 26 25 23 24 25 27 26 24
8 8 8 10 11 10 7 6 9 10 12 15 18 20 21 21 24 26 26 27 28 28 27 26 26 28 28 28 27 26 27 29 29 30 29 26 26 25 24 25 25 26 26
8 8 10 10 7 9 6 7 10 13 16 19 20 20 21 23 25 24 25 29 30 30 29 25 32 31 28 28 31 31 30 28 27 26 27 26 26 26 25 26 25 25 25
7 7 7 7 6 5 5 10 14 16 18 20 22 21 23 23 25 27 27 28 30 29 29 30 37 37 36 34 33 33 32 31 26 25 25 24 24 25 24 26 28 28 28
7 8 7 6 5 7 9 14 17 18 21 23 24 22 24 24 27 31 29 27 28 31 32 34 37 38 36 34 31 30 30 29 29 26 24 24 23 23 23 22 25 26 28
7 5 4 4 7 10 13 16 19 21 24 27 26 24 27 30 30 29 32 30 30 30 36 36 38 41 36 33 30 28 28 28 27 26 26 24 24 25 26 24 24 25 27
3 4 6 8 11 14 17 19 23 26 29 31 27 27 28 27 28 32 33 32 33 35 36 38 40 42 39 37 34 31 31 30 28 26 26 27 28 28 28 30 31 30 29
4 6 8 10 12 17 20 23 24 26 23 23 26 25 21 24 29 30 33 35 36 36 39 41 43 45 45 39 38 36 34 34 34 32 32 32 33 33 33 33 34 36 35
7 10 12 16 17 18 20 23 26 30 29 28 25 17 25 29 30 36 35 33 34 39 44 45 45 46 43 39 35 35 38 39 40 40 40 41 41 41 41 40 40 41 42
10 14 15 17 17 22 24 24 25 27 29 26 22 40 32 31 34 37 33 33 43 49 44 44 44 45 42 38 39 42 45 47 48 48 48 48 49 49 49 49 48 48 48
14 16 17 17 21 25 27 33 33 29 21 21 38 38 39 33 34 36 43 52 50 47 45 45 46 44 43 45 50 53 55 55 56 56 57 57 57 58 58 58 58 57 56
15 18 23 23 22 25 29 29 26 28 40 37 40 38 34 44 48 50 52 52 50 48 44 44 45 48 52 56 59 61 62 64 66 67 67 67 67 67 67 67 68 68 67
17 17 21 21 25 28 26 30 39 37 41 44 43 39 47 47 48 47 48 48 47 46 47 50 53 57 60 64 66 69 71 72 73 73 74 75 76 76 77 78 78 77 76
20 21 19 21 27 41 45 49 45 46 45 49 53 51 47 45 45 45 45 46 47 50 55 60 64 65 67 69 73 74 74 75 75 77 78 79 81 82 83 85 86 87 87
21 19 22 32 36 39 41 45 49 50 51 51 49 46 44 44 44 45 49 51 55 59 62 63 64 67 70 74 76 78 80 80 82 87 89 89 89 88 89 89 91 93 95
26 26 31 36 41 43 44 46 48 50 49 47 49 47 47 48 51 53 55 58 61 63 64 66 69 73 79 83 86 90 92 94 97 97 96 98 98 98 97 95 94 94 94
25 31 37 39 39 42 47 51 52 49 48 49 48 49 51 53 54 56 59 61 62 64 69 72 78 82 86 90 94 98 102 105 106 107 106 107 108 105 103 102 100 99 99
32 35 37 40 40 50 50 47 45 48 48 47 49 51 53 55 57 60 61 63 67 72 76 81 86 90 92 96 100 103 105 106 108 110 107 96 89 86 85 84 85 88 94
32 35 37 39 41 42 44 45 45 48 48 50 53 54 55 57 59 61 64 69 73 78 84 89 92 94 97 101 105 110 109 100 91 86 81 75 66 61 63 65 68 71 71

GFSSE_500_spd_024.txt.gz
Wind_Speed
32 29 24 23 18 15 18 20 19 18 16 8 7 6 3 1 2 3 4 6 8 9 11 13 13 14 14 14 15 14 16 16 15 14 14 14 16 17 17 17 17 17 19
37 30 28 19 15 14 16 18 16 15 10 7 8 7 4 2 2 4 7 9 12 13 14 16 17 18 18 18 18 17 17 18 18 18 16 16 17 17 17 17 18 18 16
34 35 23 8 12 12 13 15 15 12 8 8 11 9 7 5 6 7 10 13 15 17 18 20 21 21 21 22 22 22 21 20 20 21 19 19 19 20 19 19 18 18 17
34 35 12 3 9 10 13 14 12 11 8 9 13 11 9 8 9 11 13 15 18 20 21 23 25 25 25 24 22 21 21 21 20 21 21 20 21 22 22 21 20 18 17
40 37 4 4 9 12 12 11 12 8 7 11 12 11 11 11 12 15 16 18 20 22 24 25 24 22 21 21 20 19 19 19 19 18 18 20 20 21 23 22 22 19 19
29 10 3 4 10 12 10 10 9 6 7 9 10 10 11 14 15 17 19 20 22 24 24 24 21 19 20 20 20 20 19 17 19 21 22 22 22 23 23 23 24 23 19
22 7 2 7 11 13 7 9 7 6 6 7 8 11 14 16 18 19 21 22 24 23 24 25 24 22 23 23 23 24 23 23 24 25 25 26 26 24 25 24 25 26 23
8 6 3 10 12 11 7 8 7 6 6 8 10 14 16 19 21 21 22 25 24 24 26 26 24 20 21 24 26 26 27 28 29 29 28 28 27 25 25 25 23 25 26
2 2 10 13 14 10 10 8 8 7 8 10 14 17 20 23 22 23 22 24 25 26 28 26 25 23 23 27 27 27 29 30 30 29 29 28 29 27 26 27 26 25 26
4 9 12 13 12 10 10 10 9 9 12 15 18 21 23 23 22 24 22 25 26 26 26 25 23 25 27 32 33 32 30 31 32 30 30 27 26 28 28 28 29 28 27
7 8 9 10 10 11 11 9 10 13 17 20 22 21 21 23 26 25 24 27 28 28 29 27 25 29 32 34 37 35 34 31 30 31 29 28 27 24 26 27 27 28 30
13 12 12 11 11 11 11 12 16 18 19 21 23 24 27 26 28 30 30 33 30 27 28 27 30 31 32 35 37 35 34 32 30 31 29 29 27 26 25 26 27 28 29
9 10 9 8 9 11 13 15 16 19 22 25 26 27 27 27 28 31 31 31 28 25 28 31 33 33 35 36 37 38 38 34 31 31 30 29 30 28 27 28 29 29 30
8 7 8 9 10 11 13 16 20 23 25 26 28 29 28 27 28 28 28 30 27 34 35 33 31 35 37 41 42 43 42 38 36 34 34 32 31 32 31 31 32 33 33
6 7 8 9 8 11 16 19 22 26 29 30 30 27 28 32 31 30 31 37 38 35 36 31 37 44 43 41 42 42 40 37 35 34 37 36 38 38 39 39 39 38 38
7 8 9 9 12 13 15 20 25 29 31 27 31 27 17 21 33 40 35 36 36 33 34 43 50 45 43 43 43 42 40 38 39 39 41 44 44 46 46 47 47 47 46
9 11 13 13 15 16 22 27 27 28 17 18 14 35 30 40 26 29 36 41 44 44 48 49 45 42 43 41 40 39 40 42 45 47 49 50 53 52 53 54 54 53 54
10 13 15 16 15 18 22 30 33 24 34 35 39 35 31 32 33 37 43 48 47 46 46 46 44 41 40 40 41 44 46 49 53 56 57 57 60 61 63 61 63 63 61
13 14 17 21 23 25 30 23 23 33 39 45 35 35 32 34 35 39 40 42 43 43 44 45 46 45 46 47 50 53 55 57 59 61 65 68 70 71 71 74 72 73 71
16 19 21 23 24 26 33 41 37 45 40 40 40 40 39 37 38 39 39 40 41 43 45 47 50 52 55 56 56 58 58 59 61 64 67 68 72 75 75 76 79 80 81
20 22 22 23 24 28 37 41 41 41 45 47 44 43 41 40 41 41 43 47 50 52 53 54 57 59 59 59 61 62 64 68 72 74 74 79 81 84 85 86 87 88 90
21 23 24 25 28 34 41 44 45 46 52 50 49 46 45 45 46 48 49 52 54 56 58 59 59 59 63 66 67 71 73 77 82 85 88 90 92 93 96 98 98 99 100
23 23 24 25 30 37 40 42 45 49 50 46 47 49 50 50 51 53 54 56 56 57 58 60 62 66 69 73 76 81 83 87 89 91 94 97 100 103 106 107 109 111 110
24 25 28 32 32 31 33 37 40 42 44 47 49 51 51 51 55 54 56 57 58 59 62 66 69 74 78 82 86 89 91 93 96 97 102 107 110 108 103 100 98 97 98
21 19 18 20 23 27 30 34 38 41 45 48 51 54 52 55 57 59 59 59 61 64 68 73 77 81 85 89 92 94 98 101 104 109 107 102 90 81 77 73 72 72 74
14 16 19 22 25 28 32 36 39 42 46 50 51 53 57 62 62 61 60 62 65 69 74 79 84 89 91 91 96 101 106 108 104 90 79 72 64 55 55 54 56 56 54

GFSSE_500_spd_027.txt.gz
Wind_Speed
37 36 36 34 32 28 26 22 20 18 16 12 9 10 7 5 3 1 2 4 6 7 9 11 14 15 16 16 16 16 16 16 16 16 15 16 17 17 17 18 18 18 17
40 39 38 36 31 29 27 20 17 16 14 10 10 12 9 6 4 2 4 6 9 11 13 15 17 19 20 20 19 19 20 19 19 19 19 18 20 19 20 20 20 20 18
39 41 42 39 35 32 17 16 15 13 12 11 13 14 11 8 6 5 7 10 13 15 17 18 20 21 21 21 20 19 18 19 20 20 20 19 21 22 23 23 23 22 20
43 47 47 33 28 17 16 15 14 12 12 11 14 15 12 10 7 8 10 13 15 17 18 20 21 22 18 17 17 17 17 17 18 18 17 18 16 20 21 23 24 25 21
43 44 39 43 29 16 16 15 13 13 11 12 16 15 12 10 9 10 13 15 17 19 20 20 20 20 18 17 17 18 18 18 17 17 18 20 20 21 22 22 23 25 25
38 42 47 37 26 18 17 14 12 10 12 15 16 14 12 10 10 14 16 18 19 22 22 20 20 20 18 16 17 18 19 19 20 22 22 23 25 25 25 24 23 24 25
30 45 23 24 20 15 18 10 10 11 13 13 12 11 11 12 15 18 18 20 22 24 24 23 25 22 19 16 17 19 21 23 24 26 26 27 27 28 28 27 25 25 26
24 37 14 12 11 16 11 6 9 10 11 9 9 10 13 16 18 21 22 22 25 25 25 24 24 22 21 21 22 23 24 26 27 28 28 28 29 29 30 29 29 27 27
25 22 23 19 13 9 4 5 7 8 8 8 10 13 16 20 23 23 25 25 26 24 22 24 24 24 23 23 24 26 29 29 28 30 31 31 29 28 29 30 29 30 31
27 15 5 7 7 7 6 9 10 10 9 10 14 18 20 23 26 25 25 27 27 23 25 26 28 26 26 27 27 30 31 31 30 30 30 33 31 30 29 29 30 30 31
22 5 4 9 4 8 9 9 9 9 13 16 18 20 24 26 27 27 28 29 29 28 31 32 32 30 30 31 32 34 34 35 36 35 32 32 33 32 31 29 29 30 31
8 2 1 4 4 7 8 10 12 13 16 18 21 22 26 28 29 29 30 31 30 28 28 27 28 30 33 35 36 35 35 37 38 40 33 35 35 35 33 34 31 31 31
3 3 3 5 6 8 10 12 13 14 18 21 23 27 29 28 31 31 32 32 29 24 29 32 31 34 37 35 35 39 42 42 42 42 40 36 37 36 35 35 34 34 34
3 3 4 7 8 9 10 11 14 17 21 23 25 29 31 33 31 31 31 31 28 35 33 35 37 37 36 35 39 42 43 41 41 43 44 37 36 35 35 34 36 37 37
4 5 7 7 8 10 13 16 19 20 22 26 29 30 30 30 30 27 32 26 33 38 36 37 38 40 39 43 49 45 41 41 40 39 40 40 37 38 39 39 40 40 40
6 6 7 9 10 13 15 18 20 26 27 25 15 17 34 25 21 38 36 30 35 42 42 45 47 45 48 50 45 42 40 40 39 39 39 43 43 44 44 46 46 47 47
6 9 11 13 15 16 18 22 27 31 33 25 22 39 45 29 27 31 37 32 35 40 48 50 48 47 46 43 43 42 40 40 41 43 46 46 49 52 52 51 51 52 53
9 11 14 16 18 21 25 28 31 21 19 36 39 40 46 44 38 38 34 36 39 40 42 42 42 42 43 45 46 46 46 48 49 51 52 55 56 58 63 64 63 64 67
10 12 15 19 22 24 28 26 32 36 38 41 38 39 38 33 31 31 32 34 37 38 39 41 44 46 47 48 48 48 51 53 55 56 56 58 60 61 63 65 70 70 73
14 17 21 23 26 27 28 29 37 36 40 41 41 43 41 39 39 38 37 37 40 44 48 49 50 51 52 54 54 55 55 57 59 62 64 65 65 68 72 73 75 77 80
18 21 24 26 28 29 31 34 37 38 35 35 40 41 41 42 43 44 47 46 47 49 51 51 51 53 53 55 56 58 58 62 66 70 73 74 76 78 80 82 84 86 87
20 23 27 29 29 28 29 33 34 34 36 38 40 41 42 46 48 50 46 47 50 54 55 56 57 54 56 58 61 64 66 69 72 76 79 81 86 89 91 92 94 97 99
26 27 26 27 27 29 27 27 28 30 34 37 40 42 44 46 48 50 51 53 59 62 59 57 58 58 61 66 70 74 77 79 82 82 84 87 92 96 101 104 106 107 109
28 26 22 19 19 21 23 26 29 33 36 40 44 47 49 49 51 53 56 59 61 60 59 60 61 64 69 73 78 80 83 85 87 90 93 99 104 106 104 99 95 93 88
21 14 14 16 18 22 25 29 32 35 39 43 47 50 52 54 55 56 57 59 59 59 60 62 65 70 75 80 83 87 88 90 95 100 104 106 101 89 77 72 68 66 64
12 13 16 19 22 25 29 32 35 38 41 45 49 52 54 57 58 60 60 63 64 63 63 67 72 76 80 83 87 89 92 99 103 104 96 85 75 59 52 50 51 51 50

GFSSE_500_spd_030.txt.gz
Wind_Speed
37 38 38 38 38 39 37 34 32 30 26 22 17 12 14 13 11 8 5 2 2 5 7 9 11 12 14 15 15 15 15 16 16 16 15 15 16 18 18 19 20 22 22
37 38 41 38 40 40 37 34 32 31 24 20 16 13 17 14 11 7 4 3 5 7 9 11 12 15 17 15 14 14 14 14 15 14 15 15 16 16 18 20 21 23 24
39 41 43 47 42 42 35 32 27 26 20 16 14 16 18 15 11 6 5 6 8 9 11 13 15 16 15 13 13 13 13 14 15 14 14 9 16 15 16 18 19 20 23
39 40 47 45 43 43 46 46 33 23 20 17 16 17 20 15 11 7 7 9 10 11 14 16 16 15 16 14 13 13 14 16 17 17 19 9 17 16 18 19 20 21 22
35 41 44 44 43 45 47 34 22 20 19 16 16 19 20 14 9 8 10 12 13 15 17 18 18 17 20 19 16 14 14 15 17 16 20 20 16 18 20 21 22 23 22
35 37 40 40 43 45 40 31 21 18 16 15 16 19 18 12 9 12 13 13 15 17 19 21 21 21 21 18 16 14 14 18 20 21 20 22 23 23 23 23 24 25 26
36 36 38 42 38 39 37 24 19 11 10 12 15 15 14 11 12 15 15 17 19 21 20 23 23 22 20 19 19 18 19 19 23 24 21 25 23 25 26 26 27 26 27
35 38 35 42 34 29 22 17 16 8 8 11 13 13 11 12 16 17 19 20 21 23 24 24 23 21 21 23 21 21 23 22 24 29 21 28 24 26 27 28 30 29 29
32 38 18 26 29 19 14 9 9 7 8 9 8 10 14 17 18 20 21 23 24 25 26 26 27 27 30 26 27 23 24 27 31 31 28 28 27 28 28 29 30 32 32
29 32 20 20 25 16 6 12 11 9 9 10 15 15 16 18 20 22 24 25 28 27 26 27 31 30 29 27 27 25 27 30 34 36 31 33 31 31 30 30 31 32 33
21 27 15 16 8 6 9 6 7 8 9 10 12 16 17 19 21 24 25 28 29 29 27 26 26 25 27 27 30 35 35 36 35 38 37 40 39 36 34 34 33 32 32
22 15 13 8 11 15 5 3 5 8 9 12 13 16 18 22 24 24 26 31 30 30 28 22 25 29 31 37 39 36 37 40 41 40 41 42 44 41 39 39 39 35 33
4 13 11 7 4 3 1 5 8 9 11 13 15 18 19 24 25 26 26 25 25 24 22 22 35 33 34 31 36 42 42 43 44 47 53 46 42 42 41 38 38 38 36
7 5 2 1 1 3 5 9 10 12 13 16 16 17 17 23 26 25 26 27 23 30 30 33 44 42 39 38 39 41 43 45 47 50 44 45 44 41 41 40 38 38 36
2 2 4 4 5 6 8 11 13 13 17 21 21 18 12 24 32 33 25 25 28 41 48 43 44 39 42 44 43 41 39 43 44 43 44 44 40 42 42 42 43 41 42
6 5 4 5 6 9 10 12 13 17 21 26 23 25 24 31 34 45 28 28 32 37 35 39 41 41 46 43 42 41 43 41 40 41 41 43 43 42 43 44 44 45 45
5 7 7 9 11 13 14 17 18 27 19 12 35 33 34 32 29 25 27 27 28 31 35 34 38 37 39 40 41 42 43 43 46 47 48 48 51 51 51 51 52 51 52
7 9 9 11 15 18 19 22 21 24 24 31 32 34 31 31 31 32 30 28 32 32 31 31 36 40 42 44 43 42 43 44 45 46 48 48 52 56 56 58 59 59 59
8 11 13 16 18 22 22 24 25 23 28 31 33 33 28 29 32 35 36 37 38 39 40 38 39 41 45 47 47 48 48 49 50 52 54 55 55 58 61 63 64 63 64
12 15 17 21 23 26 27 28 27 27 29 28 25 25 29 32 34 36 36 38 38 39 42 46 48 50 52 50 49 49 48 47 50 54 57 60 62 65 67 69 71 71 74
13 18 20 22 25 28 27 24 26 28 23 24 28 33 36 39 41 43 44 44 44 45 47 50 52 53 50 49 48 49 51 54 58 61 64 68 71 75 77 79 80 80 81
18 22 24 25 26 27 23 23 22 22 25 29 33 36 39 41 43 45 47 48 50 51 52 53 55 55 52 52 54 55 58 61 65 69 73 76 79 84 86 89 90 91 92
23 26 27 26 24 20 18 19 22 25 29 32 36 38 42 44 46 48 50 51 52 55 57 56 57 57 57 55 58 63 67 70 75 79 82 84 85 91 95 97 99 101 103
26 28 26 19 16 18 20 22 26 30 34 37 40 41 44 47 50 52 53 54 55 57 59 59 60 60 59 62 65 70 76 79 81 83 85 87 91 97 96 92 89 85 81
28 24 16 15 18 21 24 27 32 36 40 42 44 47 49 51 51 52 54 57 59 61 61 59 61 61 62 66 70 73 76 78 82 89 92 98 99 95 82 78 74 67 61
20 15 15 19 21 25 29 33 37 41 44 46 49 51 52 54 56 56 58 60 62 63 62 62 64 64 68 71 76 80 84 89 94 99 99 97 92 73 68 61 55 49 47

GFSSE_500_spd_033.txt.gz
Wind_Speed
34 33 45 37 36 38 37 38 37 36 34 31 28 28 21 16 15 13 10 9 5 3 4 6 8 8 10 11 11 10 10 10 11 12 12 12 14 14 15 17 17 18 19
40 40 34 26 29 33 38 38 38 34 33 33 29 22 18 18 17 15 11 7 5 5 7 8 10 11 12 12 12 10 9 9 9 9 9 12 10 12 12 13 15 17 19
32 29 26 24 36 37 39 41 40 36 35 30 24 22 19 20 19 14 10 8 8 8 9 11 13 13 12 13 14 13 10 9 10 9 8 12 12 12 13 14 13 15 16
40 46 34 36 38 38 43 42 40 36 39 27 25 23 18 22 19 14 11 10 10 10 11 12 12 13 14 17 18 14 12 11 10 11 9 13 14 15 16 17 17 18 18
40 42 39 36 35 42 43 45 41 40 41 32 24 22 18 22 19 14 12 13 12 12 13 14 16 17 17 18 19 16 13 12 11 12 15 15 15 17 19 20 21 21 22
37 32 28 34 39 35 43 41 44 40 37 26 21 18 15 20 18 15 14 14 13 14 16 18 18 19 19 17 16 17 18 12 13 14 17 20 22 22 20 21 23 25 26
31 29 30 34 31 37 38 43 48 38 28 23 15 12 15 18 15 13 15 17 17 19 20 19 20 20 21 17 17 18 19 16 18 17 23 24 23 23 24 24 24 26 28
27 30 30 27 37 36 44 46 30 21 23 11 12 11 11 11 9 16 19 19 20 22 23 24 23 22 23 26 26 28 29 26 27 23 25 28 27 26 25 26 26 27 29
42 28 27 30 48 50 26 13 13 21 21 14 12 14 9 16 17 18 19 20 20 22 25 26 25 25 27 24 21 22 26 27 27 28 29 29 32 31 30 30 30 30 30
37 31 26 26 46 21 13 9 8 15 13 10 7 8 11 12 15 17 18 21 23 24 25 26 24 21 18 23 27 29 28 32 32 32 37 37 38 35 37 34 33 33 31
34 35 36 21 21 13 8 15 16 13 11 8 9 9 9 11 16 18 20 21 25 26 26 25 20 18 19 28 28 30 31 36 36 36 39 39 41 44 45 42 40 37 36
33 24 24 19 23 20 17 13 8 5 5 5 8 9 12 15 19 20 23 25 26 24 20 19 18 24 33 42 31 30 32 34 38 42 42 43 43 44 49 42 39 40 38
16 16 15 10 18 15 13 8 4 2 5 8 9 12 16 18 14 16 13 21 22 27 23 22 25 31 40 37 32 33 35 39 41 41 43 46 48 50 47 42 40 39 37
8 18 16 17 12 8 4 3 2 4 6 8 11 14 20 21 22 22 22 25 27 24 24 29 33 37 37 36 34 34 36 37 38 40 41 41 42 42 43 43 41 40 39
10 13 10 8 6 4 2 2 4 5 8 12 14 16 16 17 24 26 26 25 23 20 24 27 26 27 32 34 36 38 39 38 37 39 41 42 41 42 43 43 43 42 42
4 5 8 6 3 2 3 2 3 8 10 12 6 20 14 20 22 17 16 19 20 21 23 25 27 30 32 36 38 39 40 40 42 43 44 44 45 47 47 46 45 44 46
5 6 6 5 6 5 9 8 10 12 15 14 18 21 22 18 16 17 21 24 26 26 26 27 28 30 32 35 39 42 42 42 42 44 44 43 44 45 47 48 49 49 52
3 3 4 6 8 11 13 14 14 16 16 15 20 20 14 16 19 22 25 27 29 29 30 32 33 35 37 40 42 45 46 43 41 43 44 45 46 48 49 51 51 52 53
4 5 9 12 14 14 16 18 18 17 17 19 17 14 17 19 22 24 26 28 30 32 34 35 37 40 43 45 46 47 47 45 43 45 46 48 50 53 56 57 58 59 61
10 9 11 15 16 18 17 17 18 16 17 13 13 17 21 23 26 29 31 34 36 38 41 43 44 46 48 48 47 46 45 45 45 47 49 53 57 61 65 68 70 72 74
10 14 15 18 18 18 19 16 13 13 15 17 21 24 28 30 34 35 37 38 40 43 45 46 46 48 50 50 49 48 46 47 49 51 56 61 65 69 73 77 79 81 83
12 18 22 22 20 20 17 12 15 17 21 25 27 31 35 38 41 43 44 45 47 48 48 49 49 52 54 53 52 50 49 50 53 58 61 66 70 73 76 81 86 92 95
21 20 21 19 21 14 15 18 19 22 26 30 33 37 41 44 46 47 48 49 50 50 50 51 52 55 56 55 54 53 54 56 59 62 68 72 75 78 83 89 92 95 95
26 24 21 17 13 16 18 22 24 28 32 35 38 42 46 48 50 51 51 53 55 56 54 56 57 58 57 56 55 57 60 63 67 69 70 74 79 83 88 91 97 94 82
26 24 18 12 14 19 22 27 29 33 37 41 44 46 48 50 51 53 55 57 57 55 55 61 59 59 58 54 56 59 63 66 67 72 72 76 80 90 91 94 89 76 70
21 15 14 14 19 25 29 32 36 39 43 46 49 51 53 55 56 56 57 58 57 53 61 62 62 61 58 59 61 63 66 70 73 77 78 82 86 88 95 87 70 64 59

GFSSE_500_spd_036.txt.gz
Wind_Speed
30 34 36 38 38 40 48 38 36 36 34 33 33 27 24 24 20 18 16 13 10 9 9 9 11 11 11 12 11 11 10 9 9 10 11 12 11 13 15 15 16 16 15
28 33 39 39 42 42 32 29 33 34 34 35 31 29 26 21 20 18 16 14 12 10 10 11 12 12 12 12 9 9 10 10 10 8 7 6 7 9 10 12 13 13 13
36 36 35 34 25 30 36 34 31 32 35 34 32 29 20 21 21 20 16 14 11 11 13 13 14 13 13 12 10 11 12 12 10 10 9 8 9 10 11 13 14 15 16
40 38 39 37 44 38 35 34 33 37 35 34 35 27 19 20 21 22 19 13 12 14 14 14 14 14 14 15 15 14 12 13 13 11 10 10 13 15 17 17 19 18 19
37 37 37 40 38 38 35 32 34 36 34 32 37 30 23 20 22 22 19 15 15 15 15 15 15 16 17 17 18 15 14 14 16 15 12 11 12 17 19 20 22 21 23
37 39 38 36 34 30 31 34 36 39 36 37 39 32 19 18 22 23 17 18 17 17 16 18 19 19 21 21 20 16 15 16 16 18 19 18 20 23 22 22 22 22 25
36 37 35 32 30 29 38 31 30 34 37 40 31 16 15 17 18 19 22 18 18 17 19 18 20 21 21 23 23 24 24 23 22 23 25 27 26 24 22 23 24 27 26
36 36 32 30 28 29 29 31 32 38 43 35 16 10 11 13 17 23 18 16 17 19 19 22 24 22 22 24 25 22 20 23 22 23 24 26 28 28 30 31 32 29 29
32 44 33 36 39 31 26 43 42 28 19 6 7 9 12 15 15 16 17 18 21 22 23 25 27 23 23 17 19 21 25 24 22 23 24 28 31 33 35 35 37 37 35
27 28 41 42 31 31 43 27 16 9 9 11 13 14 14 15 19 18 22 23 23 24 26 28 27 24 22 16 21 30 33 33 31 32 33 32 33 37 36 35 38 39 39
18 34 28 30 23 19 17 10 9 15 22 17 13 12 13 17 18 19 19 20 22 24 25 28 25 20 19 19 24 33 36 35 37 37 39 41 42 38 40 42 41 38 36
26 17 15 24 28 16 10 22 19 15 11 10 11 13 15 18 16 17 21 16 21 18 20 20 23 22 24 27 31 33 34 36 36 38 40 42 42 42 40 39 38 39 36
29 39 15 17 19 22 19 15 13 11 11 9 9 9 10 14 17 17 20 17 20 26 27 27 27 27 30 33 35 33 34 34 35 38 40 41 41 41 42 40 37 36 34
17 24 21 16 20 19 12 10 6 3 4 5 4 8 12 10 8 15 16 16 22 22 21 21 23 23 29 30 30 30 32 34 35 37 39 41 42 42 43 41 40 38 37
6 9 17 17 13 11 10 7 4 4 4 5 6 7 10 11 15 16 13 11 12 14 17 19 23 27 28 30 32 34 35 36 36 38 38 41 43 44 45 46 45 43 41
9 11 10 12 11 10 8 6 6 5 6 8 9 10 14 16 13 9 11 14 17 20 23 26 29 28 30 32 34 35 37 39 40 42 42 41 41 42 45 47 48 47 45
9 10 10 9 7 6 5 2 5 7 8 10 11 14 16 8 7 10 15 19 23 25 26 27 28 30 32 33 34 36 38 40 42 44 45 43 40 40 40 40 42 45 47
7 7 5 5 4 6 5 5 8 9 9 10 11 12 7 11 11 16 20 22 24 27 29 30 32 32 34 35 37 40 42 43 45 46 45 43 42 42 43 44 45 47 49
4 2 4 5 7 8 8 10 9 11 9 10 6 8 11 14 17 21 24 27 30 32 33 33 34 36 36 37 39 42 45 47 48 46 43 42 43 44 47 49 52 53 56
6 6 9 11 11 10 9 11 9 7 5 6 8 13 16 20 23 26 28 31 33 36 36 37 38 39 38 39 42 46 48 49 49 46 45 45 47 51 54 56 60 63 64
12 13 14 14 11 10 10 9 5 4 7 11 15 20 23 26 29 31 33 35 37 41 42 43 44 43 43 44 48 50 51 51 49 48 47 49 53 57 61 64 64 67 71
9 15 15 13 11 11 6 6 9 10 15 19 22 26 28 31 33 35 37 40 43 45 47 48 48 49 48 49 54 52 52 51 49 49 51 55 57 61 66 67 70 71 76
10 12 13 13 11 6 6 9 13 16 21 24 27 32 35 39 41 42 44 47 49 50 51 52 52 50 47 52 57 55 54 51 51 52 55 57 59 62 66 69 74 78 84
11 12 12 9 8 7 10 15 20 23 28 31 34 38 41 43 45 47 48 50 51 52 52 51 50 49 49 57 56 56 54 54 57 58 60 62 64 67 70 71 79 83 85
13 12 8 6 9 13 17 22 26 30 34 37 40 43 46 48 48 49 50 51 52 53 53 52 50 58 56 57 59 57 56 60 63 65 64 67 69 71 73 78 82 85 89
9 12 9 10 13 18 22 27 30 34 38 41 44 47 48 50 52 53 54 54 53 53 54 55 53 55 62 63 62 60 62 66 68 69 68 68 71 76 80 84 85 84 85

GFSSE_500_spd_042.txt.gz
Wind_Speed
29 29 25 23 23 24 28 30 29 26 17 18 22 21 20 20 17 19 12 9 11 13 11 11 13 14 16 16 14 15 15 15 15 14 14 14 14 14 13 13 13 13 12
25 27 27 28 29 29 28 28 29 24 24 20 21 22 18 20 21 16 13 10 10 11 11 13 14 15 15 15 15 14 15 14 14 13 14 15 15 15 14 13 12 12 13
25 26 27 30 31 34 34 32 28 29 29 22 22 22 18 20 23 16 13 10 11 9 12 16 15 16 15 14 14 14 15 14 15 14 15 17 17 15 12 11 13 15 17
29 29 30 32 33 33 33 33 29 27 27 25 20 20 19 24 24 18 12 12 12 11 16 18 16 16 16 17 18 19 19 19 17 15 17 18 19 18 15 14 17 20 21
29 30 32 33 36 35 35 29 28 27 28 28 28 20 21 25 26 20 14 15 18 15 17 19 18 16 17 20 21 21 23 22 20 19 18 20 21 20 19 21 23 25 23
33 33 33 34 34 33 31 31 24 29 28 25 24 27 26 28 27 23 21 20 13 16 16 20 18 20 21 25 25 26 27 23 22 22 21 21 24 24 25 28 29 29 27
29 28 31 31 35 36 33 22 29 31 29 27 25 28 26 26 29 15 9 10 16 18 22 14 17 22 24 24 26 27 27 24 20 18 19 20 21 23 27 30 30 33 35
28 30 36 35 30 32 22 34 27 30 28 31 27 33 31 31 11 9 13 15 21 20 16 20 22 26 29 29 30 25 20 18 18 19 22 25 27 28 30 32 33 34 35
35 35 47 40 33 33 38 33 32 26 26 28 33 36 35 14 10 10 10 14 19 16 19 20 22 28 28 26 21 21 19 20 22 24 29 29 31 32 32 33 35 37 40
31 37 41 50 34 38 33 40 35 26 24 23 33 30 13 10 10 11 10 15 18 15 16 23 25 23 27 24 24 25 23 25 26 28 31 29 30 29 31 34 35 36 35
32 21 42 49 53 42 45 40 34 35 23 27 28 12 11 10 11 12 11 12 15 20 24 22 26 22 26 28 26 24 24 25 26 28 31 34 36 37 37 38 39 39 38
28 41 25 24 37 44 41 17 17 22 24 19 17 17 15 12 10 12 16 16 16 18 24 24 22 24 22 19 19 21 25 28 30 32 34 36 37 37 38 39 39 41 42
25 24 18 19 24 37 33 21 23 25 17 19 14 12 11 11 12 16 19 18 17 18 20 19 17 17 21 24 25 26 28 29 32 34 35 38 39 41 41 41 40 40 40
16 19 14 17 28 29 34 24 26 19 14 12 9 10 10 13 17 16 13 12 15 14 12 14 16 20 24 27 28 30 31 32 35 37 38 39 41 42 41 42 41 40 41
12 11 8 19 22 19 18 18 12 9 10 10 11 13 12 8 5 9 11 15 11 11 14 19 22 26 29 30 31 33 34 35 37 39 40 41 42 42 42 42 41 40 41
25 22 18 17 16 17 10 10 9 10 10 9 8 11 12 15 10 11 6 7 11 16 19 24 28 29 32 34 35 37 40 40 40 42 42 43 43 44 44 44 42 40 41
20 21 17 15 16 18 16 15 15 15 15 9 9 10 10 12 12 6 8 12 17 22 26 28 31 33 36 39 40 42 44 44 43 45 44 43 43 45 45 44 43 43 43
14 15 13 10 10 10 11 12 10 11 12 11 8 9 8 9 7 10 13 18 22 26 30 32 36 38 41 43 44 46 47 47 47 46 46 46 44 43 42 43 45 45 43
16 13 11 9 9 10 9 11 11 12 12 10 9 6 5 6 11 14 19 23 26 31 35 38 41 43 45 46 46 47 47 47 48 47 47 45 45 45 45 47 48 45 42
9 8 7 6 8 7 6 7 9 8 8 7 7 6 8 13 16 20 23 27 32 36 39 42 44 45 45 45 46 47 48 47 46 46 46 45 48 54 55 55 50 47 48
8 6 5 3 4 6 6 5 6 7 8 8 9 11 15 17 21 24 28 32 37 40 43 45 46 47 48 48 48 47 47 47 46 46 46 47 52 57 55 55 54 54 57
7 5 5 6 5 7 7 8 8 8 8 11 14 17 20 23 25 29 33 37 40 43 44 44 45 44 45 45 45 45 46 48 48 49 49 50 54 57 58 59 59 61 63
7 6 7 8 10 11 11 12 11 11 13 15 18 22 26 28 30 34 37 40 42 43 43 44 43 42 46 45 46 51 55 52 51 53 56 58 61 62 62 64 66 67 68
8 6 7 10 12 13 15 15 13 13 17 20 22 27 30 34 32 39 41 40 42 41 42 43 42 45 46 49 53 52 54 56 55 56 58 62 65 66 68 71 73 73 75
13 11 11 12 13 14 17 16 14 17 21 23 26 31 38 34 38 46 41 42 40 41 42 43 45 50 51 52 56 57 58 60 61 63 64 66 69 72 75 77 78 81 83
18 16 13 12 13 13 11 13 17 21 24 27 30 33 37 38 47 44 43 46 45 46 47 46 49 51 57 57 59 60 61 63 65 69 73 75 77 79 81 82 85 88 88

GFSSE_500_spd_045.txt.gz
Wind_Speed
21 24 25 25 24 23 23 22 22 22 20 19 11 13 11 10 9 10 7 5 6 8 9 10 11 11 12 13 13 13 12 14 14 13 14 14 13 14 13 13 12 12 11
25 23 22 26 26 26 28 28 26 22 21 19 24 16 16 14 9 11 10 7 8 11 10 10 12 12 12 11 11 11 12 13 14 14 13 14 14 16 16 16 13 12 11
25 26 26 27 28 30 30 30 25 23 22 21 19 18 15 14 11 10 11 10 13 12 12 12 13 14 12 13 13 14 15 17 18 17 16 16 17 17 17 16 17 16 14
29 28 27 29 31 30 30 28 25 22 19 21 21 21 18 13 14 16 14 11 15 13 14 14 15 15 14 14 14 19 20 21 22 22 19 18 18 18 19 20 21 20 20
30 32 33 33 34 31 28 27 26 24 21 23 21 21 18 14 15 20 19 14 16 18 16 16 18 15 15 17 19 20 24 25 26 22 18 18 19 20 21 22 24 25 27
30 32 31 32 31 29 30 27 28 27 26 22 23 20 18 17 17 24 20 17 19 20 21 18 16 15 16 18 20 23 26 28 23 18 16 17 17 17 19 20 25 26 29
32 29 30 25 27 28 32 32 27 20 20 28 23 20 19 18 21 21 22 22 19 20 17 17 14 16 17 21 25 25 27 24 21 18 18 18 19 23 24 25 25 27 28
30 30 30 28 26 31 36 32 33 28 27 28 25 21 22 22 26 20 19 15 16 17 17 15 17 18 21 22 23 24 22 21 21 21 23 23 21 25 22 22 23 25 27
27 34 33 33 30 35 44 31 27 26 30 25 25 22 20 26 27 14 13 15 14 14 15 17 18 21 19 20 25 24 20 22 22 22 26 27 31 27 26 28 28 28 28
28 31 31 27 41 42 51 29 28 33 32 24 18 17 22 27 13 14 11 10 12 11 12 16 18 19 20 24 24 24 21 19 18 21 22 23 25 29 30 30 30 32 33
30 29 26 32 53 47 44 35 36 38 34 25 20 19 16 14 14 12 11 8 10 13 15 20 21 20 22 20 14 16 18 21 24 26 28 30 31 33 35 36 37 38 39
30 28 31 26 30 42 39 35 36 26 23 17 21 17 17 16 14 11 9 11 13 16 18 18 18 17 15 13 16 19 22 25 27 29 31 33 35 37 39 41 41 40 42
29 24 27 29 35 35 44 43 28 26 17 16 12 18 16 16 13 12 14 16 17 17 16 13 7 9 13 18 21 24 26 29 30 32 34 36 38 40 39 41 43 43 43
16 21 20 22 19 20 20 36 33 23 16 17 19 13 9 11 14 16 18 18 13 13 9 8 12 15 18 22 25 28 29 32 34 36 38 39 40 42 43 43 43 44 44
12 14 18 19 19 23 25 28 26 19 25 19 15 14 15 12 8 9 11 12 15 10 9 13 17 20 22 25 28 31 34 36 38 40 41 43 43 44 45 45 44 43 42
14 16 11 16 21 23 19 20 19 12 11 13 11 12 16 12 11 7 12 9 8 10 14 18 21 23 27 30 33 36 38 40 41 41 41 42 43 45 46 46 45 44 44
19 21 21 22 20 18 16 13 11 12 13 11 11 10 13 13 15 16 10 10 11 16 20 23 26 29 33 35 38 39 40 42 42 42 43 44 44 43 44 45 44 44 43
18 14 14 14 14 13 11 11 9 9 11 15 15 12 12 11 13 11 12 14 17 19 25 28 31 34 36 38 40 41 43 43 43 43 43 42 43 44 44 44 44 45 47
13 11 9 8 7 7 6 8 10 12 14 15 15 12 12 11 10 12 14 18 22 25 29 32 34 37 38 40 42 44 45 45 44 44 44 43 44 45 45 45 45 46 47
13 11 9 8 7 7 10 11 13 14 14 15 14 12 11 11 13 15 18 23 27 29 33 36 38 40 42 43 45 46 45 44 45 45 44 44 45 45 47 48 50 50 51
11 11 11 10 9 9 8 8 11 13 13 13 12 12 13 13 16 20 24 28 30 32 35 37 40 43 44 46 46 44 45 44 44 44 45 45 48 49 50 52 55 58 59
12 9 9 9 8 9 8 9 9 10 11 13 14 13 14 18 20 25 29 31 31 35 37 40 43 44 45 45 45 43 44 44 44 46 49 50 51 53 56 58 61 63 65
11 10 9 10 10 10 11 12 13 14 14 14 14 17 20 22 25 29 33 34 36 38 40 43 44 47 47 46 41 45 49 49 51 51 53 54 56 58 61 64 66 68 70
10 9 9 9 11 12 14 15 17 15 14 16 20 22 26 27 30 33 35 35 39 41 41 45 47 48 47 47 48 53 52 53 55 55 56 59 62 64 67 71 74 76 77
15 13 12 13 15 16 17 17 17 16 18 22 23 25 26 31 36 36 40 36 41 43 45 46 46 52 46 49 46 58 59 59 60 63 63 65 67 69 72 79 78 76 79
19 20 17 16 19 16 15 20 14 20 22 24 25 27 31 33 38 40 39 41 46 46 49 53 49 52 45 54 56 60 63 63 64 66 68 71 73 77 81 81 80 84 86

GFSSE_500_spd_048.txt.gz
Wind_Speed
31 29 29 30 28 26 24 21 20 19 19 17 17 13 10 10 10 9 7 6 7 6 7 8 10 9 11 10 12 13 13 13 14 14 16 16 16 16 17 16 15 15 14
33 30 25 22 24 26 25 23 24 24 24 22 19 18 18 15 12 9 7 8 10 8 10 10 12 11 11 11 10 10 10 11 12 13 15 15 16 16 16 18 16 15 13
29 31 29 25 24 26 28 29 29 27 24 22 19 18 18 18 14 13 9 7 11 12 12 14 13 15 10 11 11 10 12 12 15 16 15 15 16 17 17 18 19 19 18
26 26 27 26 27 29 31 32 32 28 22 18 16 17 17 18 15 13 15 15 12 16 16 17 16 14 12 12 12 14 15 16 17 19 18 15 15 17 17 18 19 20 23
26 31 30 29 29 32 35 35 31 24 21 19 21 18 14 16 17 15 15 17 16 19 19 19 17 15 12 12 14 16 17 18 19 19 18 16 16 16 17 17 18 20 23
29 29 30 32 35 36 36 33 30 27 23 23 22 19 15 16 16 17 17 18 19 22 21 21 19 15 12 13 16 19 20 20 19 18 17 16 16 16 17 20 21 23 23
36 35 36 33 30 29 29 29 29 28 24 21 22 23 20 17 16 17 19 22 22 22 24 21 17 15 12 16 19 22 22 23 18 17 17 18 21 20 19 24 21 21 21
32 34 34 31 29 25 25 31 24 30 28 21 23 28 23 18 18 19 23 23 23 23 24 19 14 13 15 18 20 21 23 24 20 19 18 19 24 25 25 24 25 25 26
26 30 31 29 30 31 32 38 26 33 33 24 29 29 24 16 16 20 23 24 21 17 15 14 14 15 18 17 20 21 22 22 17 15 15 17 19 21 23 26 27 26 28
30 31 28 25 27 35 38 41 45 32 32 25 29 26 22 20 19 20 22 16 16 14 14 16 15 17 18 18 18 17 12 13 15 18 20 22 24 26 27 28 31 32 33
29 28 27 28 28 31 32 39 60 47 30 38 34 26 22 24 17 15 14 14 13 12 13 13 15 19 21 18 14 12 15 18 21 22 24 25 26 29 32 35 36 38 38
35 31 28 27 32 32 33 38 41 41 57 31 29 22 20 17 15 14 13 14 13 12 12 14 15 13 10 10 12 15 19 22 24 26 28 31 33 35 37 38 40 40 41
36 35 31 31 34 33 20 32 42 45 26 23 26 20 20 17 17 15 15 14 13 16 13 13 12 8 9 13 16 20 23 27 29 32 33 34 36 37 40 41 41 43 43
31 33 27 27 29 26 26 30 39 40 29 30 29 21 18 17 15 14 13 15 16 11 10 8 9 11 15 17 21 25 28 31 33 34 37 38 38 40 41 42 43 44 43
21 26 27 37 33 29 29 26 25 43 35 29 22 22 18 15 13 11 12 11 10 13 12 10 13 15 19 23 26 29 32 34 36 39 40 42 42 43 43 43 44 44 43
16 27 29 32 33 30 25 18 26 32 28 24 21 17 15 16 11 9 7 11 10 11 10 12 16 19 23 27 30 32 36 37 39 41 41 43 43 43 43 43 42 42 41
13 16 19 24 23 23 22 25 26 25 20 16 15 13 10 11 13 18 12 11 11 9 13 16 20 23 28 32 34 38 40 40 42 44 45 45 43 43 43 43 42 41 40
18 18 19 20 20 18 16 15 14 13 11 10 10 9 11 14 17 18 15 13 11 14 17 21 25 28 32 36 38 41 42 42 44 45 45 44 43 44 43 44 42 40 40
12 14 13 12 12 12 10 9 8 8 10 10 11 11 13 13 14 12 10 13 15 18 21 25 29 33 37 40 41 43 43 46 47 46 44 43 44 45 46 45 43 42 43
9 10 9 10 10 9 7 7 9 10 12 12 13 13 14 13 11 10 13 16 20 22 25 30 33 37 39 41 42 43 45 47 47 45 45 47 48 48 48 46 46 47 48
8 9 8 8 8 8 8 7 10 10 11 12 13 14 13 12 12 14 18 21 23 27 30 33 36 39 41 43 45 46 46 45 46 43 44 50 52 49 48 48 50 53 57
10 8 7 6 5 5 5 7 7 9 10 12 13 12 12 12 17 21 22 25 29 31 34 36 38 40 42 43 43 47 47 46 45 48 52 56 56 55 54 55 57 59 60
9 8 8 7 7 7 8 9 8 9 10 10 11 13 16 19 23 26 29 32 33 35 34 35 38 42 43 48 48 50 52 48 53 54 56 59 60 58 58 62 64 67 69
10 9 9 9 9 10 11 14 12 14 14 15 15 17 21 25 27 30 36 38 38 37 37 35 40 43 46 46 48 54 52 52 57 62 62 61 62 61 64 66 69 72 75
13 13 12 11 12 13 14 16 17 19 19 17 18 22 25 27 29 32 36 39 38 40 40 43 48 52 51 51 50 59 61 59 59 61 61 66 66 67 69 73 73 76 77
18 18 19 17 16 18 19 18 18 19 20 20 20 24 28 30 33 34 36 39 41 41 44 48 52 53 52 57 57 60 62 57 63 67 67 67 67 71 75 75 77 80 82